Lake Charles, LA

3:58 PM CST on February 12, 2016 (GMT -0600)
Chennault International

Weather History for KCWF - November, 2012

Change the Weather History Date:

Tuesday, November 20, 2012

  Actual Average Record
Temperature  
Mean Temperature 60 °F -  
Max Temperature 75 °F 68 °F 82 °F (2011)
Min Temperature 46 °F 53 °F 33 °F (2000)
Degree Days  
Heating Degree Days 4    
Growing Degree Days 10 (Base 50)    
Moisture  
Dew Point 48 °F    
Average Humidity 74    
Maximum Humidity 93    
Minimum Humidity 33    
Precipitation  
Precipitation 0.00 in - - ()
Sea Level Pressure  
Sea Level Pressure 30.19 in    
Wind  
Wind Speed 0 mph (SE)    
Max Wind Speed 5 mph    
Max Gust Speed -    
Visibility 10 miles    
Events      
Averages and records for this station are not official NWS values.
T = Trace of Precipitation, MM = Missing Value Source: NWS Daily Summary

Daily Weather History Graph

Daily Weather History Graph

Search for Another Location

Airport or City:

Trip Planner

Search our weather history database for the weather conditions in past years. The results will help you decide how hot, cold, wet, or windy it might be!

Date:

Astronomy

Nov. 20, 2012 Rise Set
Actual Time 6:42 AM CST 5:13 PM CST
Civil Twilight 6:16 AM CST 5:39 PM CST
Nautical Twilight 5:47 AM CST 6:08 PM CST
Astronomical Twilight 5:19 AM CST 6:37 PM CST
Moon 12:31 PM CST (11/20) No Moon Set
Length of Visible Light 11h 22m
Length of Day
10h 31m
First Quarter, 51% of the Moon is Illuminated
Nov 20
First Quarter
Nov 28
Full
Dec 6
Last Quarter
Dec 13
New
Dec 19
First Quarter

Hourly Weather History & Observations

Time (CST) Temp. Dew Point Humidity Pressure Visibility Wind Dir Wind Speed Gust Speed Precip Events Conditions
12:15 AM 48.4 °F 46.4 °F 93% 30.19 in 10.0 mi Calm Calm - N/A   Clear
12:35 AM 48.9 °F 46.0 °F 90% 30.19 in 10.0 mi Calm Calm - N/A   Clear
12:55 AM 48.2 °F 45.7 °F 91% 30.19 in 10.0 mi Calm Calm - N/A   Clear
1:15 AM 48.6 °F 46.0 °F 91% 30.19 in 10.0 mi Calm Calm - N/A   Clear
1:35 AM 47.1 °F 45.3 °F 93% 30.20 in 10.0 mi Calm Calm - N/A   Clear
1:55 AM 47.7 °F 45.0 °F 90% 30.20 in 10.0 mi Calm Calm - N/A   Clear
2:15 AM 47.7 °F 45.1 °F 91% 30.20 in 10.0 mi Calm Calm - N/A   Clear
2:35 AM 47.7 °F 45.3 °F 92% 30.20 in 10.0 mi Calm Calm - N/A   Clear
6:00 AM 46.4 °F 44.6 °F 93% 30.20 in 10.0 mi Calm Calm - N/A   Clear
6:55 AM 48.2 °F 46.4 °F 93% 30.20 in 7.0 mi Calm Calm - N/A   Mostly Cloudy
7:50 AM 48.2 °F 46.4 °F 93% 30.23 in 6.0 mi Calm Calm - N/A   Clear
8:40 AM 57.2 °F 53.6 °F 88% 30.25 in 6.0 mi Calm Calm - N/A   Haze
9:50 AM 64.4 °F 50.0 °F 59% 30.25 in 7.0 mi Variable 4.6 mph - N/A   Clear
10:50 AM 69.8 °F 46.4 °F 43% 30.24 in 10.0 mi Calm Calm - N/A   Clear
11:50 AM 71.6 °F 44.6 °F 38% 30.20 in 10.0 mi Calm Calm - N/A   Clear
12:50 PM 73.4 °F 42.8 °F 33% 30.17 in 10.0 mi Calm Calm - N/A   Clear
1:50 PM 73.4 °F 44.6 °F 36% 30.15 in 10.0 mi Calm Calm - N/A   Clear
2:50 PM 73.4 °F 42.8 °F 33% 30.15 in 10.0 mi Calm Calm - N/A   Clear
3:50 PM 75.2 °F 44.6 °F 34% 30.14 in 10.0 mi Calm Calm - N/A   Clear
4:45 PM 73.4 °F 46.4 °F 38% 30.14 in 10.0 mi East 3.5 mph - N/A   Clear
5:50 PM 60.8 °F 50.0 °F 68% 30.15 in 10.0 mi Calm Calm - N/A   Clear
6:50 PM 60.8 °F 50.0 °F 68% 30.17 in 10.0 mi South 3.5 mph - N/A   Clear
7:45 PM 60.8 °F 50.0 °F 68% 30.19 in 10.0 mi Calm Calm - N/A   Clear
8:45 PM 55.4 °F 50.0 °F 82% 30.20 in 10.0 mi Calm Calm - N/A   Clear
9:15 PM 58.1 °F 51.4 °F 78% 30.20 in 10.0 mi Calm Calm - N/A   Clear
9:35 PM 60.8 °F 51.8 °F 72% 30.20 in 10.0 mi Calm Calm - N/A   Clear
9:45 PM 55.4 °F 51.8 °F 88% 30.20 in 10.0 mi Calm Calm - N/A   Clear
9:55 PM 59.5 °F 52.0 °F 76% 30.20 in 10.0 mi Calm Calm - N/A   Clear
10:15 PM 57.9 °F 51.8 °F 80% 30.20 in 10.0 mi Calm Calm - N/A   Clear
10:35 PM 55.6 °F 51.3 °F 85% 30.20 in 10.0 mi Calm Calm - N/A   Clear
10:55 PM 55.4 °F 51.3 °F 86% 30.20 in 10.0 mi Calm Calm - N/A   Clear
11:15 PM 56.1 °F 52.0 °F 86% 30.20 in 10.0 mi Calm Calm - N/A   Clear
11:35 PM 55.0 °F 51.1 °F 86% 30.20 in 10.0 mi Calm Calm - N/A   Clear
11:55 PM 55.4 °F 52.2 °F 89% 30.20 in 7.0 mi Calm Calm - N/A   Clear